Location: Vesunti
(61.5000°N, 22.8333°E)
Time: 06:25:41
(UTC+00:00)

CZ-4 R/B - Pass Details

Date: 17 February 2020
Orbit: 531 x 599 km, 97.8° (Epoch: 09 April)

Event Time Altitude Azimuth Distance (km) Brightness Sun altitude
Rises 05:06:30 0° 21° (NNE) 2,818 5.1 -7.9°
Reaches altitude 10° 05:08:57 10° 33° (NNE) 1,901 4.4 -7.6°
Maximum altitude 05:12:30 27° 93° (E) 1,106 3.9 -7.2°
Drops below altitude 10° 05:15:58 10° 152° (SSE) 1,852 4.6 -6.8°
Sets 05:18:19 0° 165° (SSE) 2,730 5.3 -6.5°
